When you browse on this site, cookies collect data to enhance your experience and personalize the content and advertising you see.
Visit our Privacy Policy to learn more. By continuing to use the site, you agree to this use of cookies and data.
  • In Switzerland
  • List of Countries
  • For 7 days
  • Water Temperature
  • Satellite Maps
  • Weather Map
  • Weather Widgets
  • user-avatar
    Login

    Hourly Weather Lamu

    Today, 20 January, Sunday

    Time Temperature Precipitation Wind Pressure Humidity
    00:00 +27°C° 0 mm 5 mps 757 mmHg 77%
    01:00 +27°C° 0 mm 5 mps 757 mmHg 79%
    02:00 +26°C° 0 mm 5 mps 757 mmHg 80%
    03:00 +26°C° 0 mm 5 mps 757 mmHg 81%
    04:00 +26°C° 0 mm 5 mps 757 mmHg 83%
    05:00 +25°C° 0 mm 4 mps 757 mmHg 85%
    06:00 +25°C° 0 mm 4 mps 758 mmHg 88%
    07:00 +27°C° 0 mm 4 mps 758 mmHg 79%
    08:00 +29°C° 0 mm 4 mps 758 mmHg 71%
    09:00 +30°C° 0 mm 3 mps 759 mmHg 63%
    10:00 +34°C° 0 mm 3 mps 759 mmHg 55%
    11:00 +36°C° 0 mm 4 mps 758 mmHg 46%
    12:00 +38°C° 0 mm 4 mps 758 mmHg 37%
    13:00 +39°C° 0 mm 5 mps 757 mmHg 36%
    14:00 +40°C° 0 mm 6 mps 757 mmHg 36%
    15:00 +40°C° 0 mm 7 mps 756 mmHg 35%
    16:00 +38°C° 0 mm 7 mps 756 mmHg 44%
    17:00 +34°C° 0 mm 7 mps 755 mmHg 54%
    18:00 +32°C° 0 mm 8 mps 755 mmHg 63%
    19:00 +30°C° 0 mm 7 mps 756 mmHg 67%
    20:00 +29°C° 0 mm 7 mps 756 mmHg 71%
    21:00 +28°C° 0 mm 6 mps 757 mmHg 75%
    22:00 +28°C° 0 mm 6 mps 757 mmHg 76%
    23:00 +27°C° 0 mm 6 mps 757 mmHg 77%

    Tomorrow, 21 January, Monday

    Time Temperature Precipitation Wind Pressure Humidity
    00:00 +27°C° 0 mm 5 mps 757 mmHg 79%
    01:00 +27°C° 0 mm 5 mps 757 mmHg 80%
    02:00 +27°C° 0 mm 5 mps 757 mmHg 81%
    03:00 +26°C° 0 mm 5 mps 757 mmHg 82%
    04:00 +26°C° 0 mm 4 mps 757 mmHg 84%
    05:00 +25°C° 0 mm 4 mps 758 mmHg 86%
    06:00 +25°C° 0 mm 4 mps 758 mmHg 88%
    07:00 +27°C° 0 mm 4 mps 759 mmHg 80%
    08:00 +29°C° 0 mm 4 mps 759 mmHg 72%
    09:00 +30°C° 0 mm 3 mps 760 mmHg 64%
    10:00 +34°C° 0 mm 4 mps 759 mmHg 56%
    11:00 +36°C° 0 mm 4 mps 759 mmHg 47%
    12:00 +38°C° 0 mm 4 mps 758 mmHg 39%
    13:00 +39°C° 0 mm 5 mps 757 mmHg 39%
    14:00 +39°C° 0 mm 6 mps 757 mmHg 38%
    15:00 +40°C° 0 mm 7 mps 756 mmHg 37%
    16:00 +36°C° 0 mm 7 mps 756 mmHg 47%
    17:00 +34°C° 0 mm 8 mps 755 mmHg 56%
    18:00 +32°C° 0 mm 8 mps 755 mmHg 65%
    19:00 +30°C° 0 mm 7 mps 756 mmHg 69%
    20:00 +29°C° 0 mm 7 mps 756 mmHg 72%
    21:00 +28°C° 0 mm 6 mps 757 mmHg 76%
    22:00 +28°C° 0 mm 6 mps 757 mmHg 78%
    23:00 +28°C° 0 mm 6 mps 758 mmHg 80%

    Day after tomorrow, 22 January, Tuesday

    Time Temperature Precipitation Wind Pressure Humidity
    00:00 +27°C° 0 mm 5 mps 758 mmHg 82%
    01:00 +27°C° 0 mm 5 mps 757 mmHg 83%
    02:00 +27°C° 0 mm 5 mps 757 mmHg 84%
    03:00 +27°C° 0 mm 5 mps 757 mmHg 85%
    04:00 +26°C° 0 mm 5 mps 757 mmHg 87%
    05:00 +26°C° 0 mm 4 mps 757 mmHg 89%
    06:00 +26°C° 0 mm 4 mps 757 mmHg 90%
    07:00 +27°C° 0 mm 4 mps 758 mmHg 84%
    08:00 +28°C° 0 mm 4 mps 759 mmHg 78%
    09:00 +29°C° 0 mm 4 mps 759 mmHg 72%
    10:00 +32°C° 0 mm 4 mps 759 mmHg 64%
    11:00 +34°C° 0 mm 3 mps 758 mmHg 56%
    12:00 +36°C° 0 mm 3 mps 758 mmHg 47%
    13:00 +36°C° 0 mm 4 mps 757 mmHg 49%
    14:00 +36°C° 0 mm 5 mps 756 mmHg 50%
    15:00 +36°C° 0 mm 6 mps 755 mmHg 51%
    16:00 +34°C° 0 mm 7 mps 755 mmHg 57%
    17:00 +33°C° 0 mm 7 mps 755 mmHg 63%
    18:00 +30°C° 0 mm 7 mps 755 mmHg 70%
    19:00 +30°C° 0 mm 7 mps 756 mmHg 72%
    20:00 +29°C° 0 mm 7 mps 756 mmHg 75%
    21:00 +28°C° 0 mm 6 mps 757 mmHg 77%
    22:00 +28°C° 0 mm 6 mps 757 mmHg 78%
    23:00 +28°C° 0 mm 6 mps 757 mmHg 79%

    23 January, Wednesday

    Time Temperature Precipitation Wind Pressure Humidity
    00:00 +27°C° 0 mm 5 mps 757 mmHg 80%
    01:00 +27°C° 0 mm 5 mps 756 mmHg 81%
    02:00 +27°C° 0 mm 5 mps 756 mmHg 82%
    03:00 +27°C° 0 mm 5 mps 756 mmHg 83%
    04:00 +27°C° 0 mm 5 mps 756 mmHg 84%
    05:00 +26°C° 0 mm 5 mps 757 mmHg 85%
    06:00 +26°C° 0 mm 5 mps 757 mmHg 87%
    07:00 +27°C° 0 mm 5 mps 758 mmHg 82%
    08:00 +28°C° 0 mm 5 mps 758 mmHg 76%
    09:00 +29°C° 0 mm 5 mps 759 mmHg 71%
    10:00 +32°C° 0 mm 5 mps 758 mmHg 65%
    11:00 +33°C° 0 mm 4 mps 758 mmHg 58%
    12:00 +35°C° 0 mm 3 mps 758 mmHg 51%
    13:00 +35°C° 0 mm 4 mps 757 mmHg 49%
    14:00 +36°C° 0 mm 5 mps 756 mmHg 47%
    15:00 +38°C° 0 mm 6 mps 755 mmHg 44%
    16:00 +35°C° 0 mm 6 mps 755 mmHg 52%
    17:00 +33°C° 0 mm 7 mps 755 mmHg 60%
    18:00 +30°C° 0 mm 7 mps 756 mmHg 67%
    19:00 +29°C° 0 mm 7 mps 756 mmHg 71%
    20:00 +29°C° 0 mm 6 mps 757 mmHg 74%
    21:00 +28°C° 0 mm 6 mps 758 mmHg 77%
    22:00 +28°C° 0 mm 6 mps 758 mmHg 79%
    23:00 +28°C° 0 mm 6 mps 758 mmHg 80%

    24 January, Thursday

    Time Temperature Precipitation Wind Pressure Humidity
    00:00 +27°C° 0 mm 6 mps 758 mmHg 81%
    01:00 +27°C° 0 mm 6 mps 757 mmHg 83%
    02:00 +27°C° 0 mm 5 mps 757 mmHg 84%
    03:00 +26°C° 0 mm 5 mps 756 mmHg 86%
    04:00 +26°C° 0 mm 5 mps 757 mmHg 88%
    05:00 +26°C° 0 mm 4 mps 757 mmHg 90%
    06:00 +25°C° 0 mm 4 mps 758 mmHg 92%
    07:00 +27°C° 0 mm 4 mps 758 mmHg 85%
    08:00 +28°C° 0 mm 4 mps 759 mmHg 77%
    09:00 +30°C° 0 mm 4 mps 759 mmHg 69%
    10:00 +33°C° 0 mm 4 mps 759 mmHg 61%
    11:00 +35°C° 0 mm 4 mps 759 mmHg 53%
    12:00 +37°C° 0 mm 3 mps 758 mmHg 45%
    13:00 +36°C° 0 mm 4 mps 757 mmHg 46%
    14:00 +36°C° 0 mm 5 mps 757 mmHg 47%
    15:00 +36°C° 0 mm 5 mps 756 mmHg 48%
    16:00 +34°C° 0 mm 6 mps 756 mmHg 54%
    17:00 +33°C° 0 mm 6 mps 756 mmHg 60%
    18:00 +30°C° 0 mm 7 mps 756 mmHg 66%
    19:00 +30°C° 0 mm 6 mps 757 mmHg 70%
    20:00 +29°C° 0 mm 6 mps 757 mmHg 75%
    21:00 +28°C° 0 mm 5 mps 758 mmHg 79%
    22:00 +28°C° 0 mm 5 mps 758 mmHg 81%
    23:00 +27°C° 0 mm 5 mps 758 mmHg 84%

    25 January, Friday

    Time Temperature Precipitation Wind Pressure Humidity
    00:00 +27°C° 0 mm 5 mps 758 mmHg 86%
    01:00 +27°C° 0 mm 4 mps 758 mmHg 88%
    02:00 +26°C° 0 mm 4 mps 757 mmHg 90%
    03:00 +26°C° 0 mm 4 mps 757 mmHg 91%
    04:00 +26°C° 0 mm 4 mps 758 mmHg 92%
    05:00 +26°C° 0 mm 4 mps 758 mmHg 92%
    06:00 +26°C° 0 mm 4 mps 759 mmHg 93%
    07:00 +27°C° 0 mm 4 mps 759 mmHg 85%
    08:00 +29°C° 0 mm 4 mps 760 mmHg 77%
    09:00 +30°C° 0 mm 4 mps 760 mmHg 70%
    10:00 +33°C° 0 mm 4 mps 760 mmHg 61%
    11:00 +35°C° 0 mm 4 mps 759 mmHg 52%
    12:00 +37°C° 0 mm 3 mps 759 mmHg 43%
    13:00 +38°C° 0 mm 4 mps 758 mmHg 43%
    14:00 +39°C° 0 mm 5 mps 757 mmHg 42%
    15:00 +39°C° 0 mm 5 mps 757 mmHg 41%
    16:00 +36°C° 0 mm 6 mps 756 mmHg 48%
    17:00 +34°C° 0 mm 6 mps 756 mmHg 56%
    18:00 +32°C° 0 mm 6 mps 756 mmHg 63%
    19:00 +30°C° 0 mm 6 mps 757 mmHg 68%
    20:00 +29°C° 0 mm 5 mps 757 mmHg 74%
    21:00 +28°C° 0 mm 5 mps 757 mmHg 79%
    22:00 +27°C° 0 mm 4 mps 758 mmHg 82%
    23:00 +27°C° 0 mm 4 mps 758 mmHg 85%
    Show more